When you browse on this site, cookies collect data to enhance your experience and personalize the content and advertising you see.
Visit our Privacy Policy to learn more. By continuing to use the site, you agree to this use of cookies and data.
  • In Sweden
  • List of Countries
  • For 7 days
  • Water Temperature
  • Weather Map
  • Weather Widgets
  • user-avatar
    Login

    Hourly Weather Bangalol

    Today, 24 January, Friday

    Time Temperature Precipitation Wind Pressure Humidity
    00:00 +20°C° 0 mm 3 mps 700 mmHg 78%
    01:00 +19°C° 0 mm 3 mps 700 mmHg 80%
    02:00 +19°C° 0 mm 3 mps 699 mmHg 83%
    03:00 +18°C° 0 mm 2 mps 699 mmHg 85%
    04:00 +18°C° 0 mm 2 mps 699 mmHg 86%
    05:00 +17°C° 0 mm 2 mps 699 mmHg 88%
    06:00 +19°C° 0 mm 2 mps 700 mmHg 78%
    07:00 +20°C° 0 mm 2 mps 701 mmHg 69%
    08:00 +23°C° 0 mm 2 mps 701 mmHg 59%
    09:00 +25°C° 0 mm 3 mps 701 mmHg 47%
    10:00 +28°C° 0 mm 4 mps 701 mmHg 34%
    11:00 +30°C° 0 mm 5 mps 701 mmHg 22%
    12:00 +32°C° 0 mm 5 mps 701 mmHg 21%
    13:00 +32°C° 0 mm 5 mps 700 mmHg 20%
    14:00 +33°C° 0 mm 5 mps 699 mmHg 19%
    15:00 +32°C° 0 mm 4 mps 699 mmHg 22%
    16:00 +30°C° 0 mm 4 mps 699 mmHg 24%
    17:00 +29°C° 0 mm 4 mps 699 mmHg 27%
    18:00 +27°C° 0 mm 4 mps 699 mmHg 32%
    19:00 +25°C° 0 mm 3 mps 699 mmHg 37%
    20:00 +21°C° 0 mm 3 mps 700 mmHg 42%
    21:00 +21°C° 0 mm 3 mps 700 mmHg 45%
    22:00 +20°C° 0 mm 3 mps 700 mmHg 48%
    23:00 +19°C° 0 mm 2 mps 700 mmHg 52%

    Tomorrow, 25 January, Saturday

    Time Temperature Precipitation Wind Pressure Humidity
    00:00 +19°C° 0 mm 2 mps 699 mmHg 54%
    01:00 +18°C° 0 mm 2 mps 699 mmHg 57%
    02:00 +17°C° 0 mm 2 mps 698 mmHg 59%
    03:00 +17°C° 0 mm 2 mps 698 mmHg 60%
    04:00 +18°C° 0 mm 1 mps 698 mmHg 60%
    05:00 +16°C° 0 mm 1 mps 699 mmHg 61%
    06:00 +19°C° 0 mm 1 mps 699 mmHg 56%
    07:00 +20°C° 0 mm 1 mps 700 mmHg 50%
    08:00 +21°C° 0 mm 1 mps 701 mmHg 45%
    09:00 +24°C° 0 mm 2 mps 701 mmHg 37%
    10:00 +27°C° 0 mm 2 mps 701 mmHg 29%
    11:00 +29°C° 0 mm 3 mps 701 mmHg 21%
    12:00 +30°C° 0 mm 3 mps 701 mmHg 19%
    13:00 +31°C° 0 mm 3 mps 700 mmHg 16%
    14:00 +33°C° 0 mm 4 mps 699 mmHg 14%
    15:00 +32°C° 0 mm 4 mps 699 mmHg 17%
    16:00 +30°C° 0 mm 4 mps 699 mmHg 20%
    17:00 +29°C° 0 mm 4 mps 698 mmHg 22%
    18:00 +27°C° 0 mm 4 mps 699 mmHg 27%
    19:00 +24°C° 0 mm 3 mps 699 mmHg 33%
    20:00 +21°C° 0 mm 3 mps 700 mmHg 38%
    21:00 +20°C° 0 mm 3 mps 700 mmHg 41%
    22:00 +20°C° 0 mm 2 mps 700 mmHg 44%
    23:00 +19°C° 0 mm 2 mps 700 mmHg 47%

    Day after tomorrow, 26 January, Sunday

    Time Temperature Precipitation Wind Pressure Humidity
    00:00 +18°C° 0 mm 2 mps 699 mmHg 49%
    01:00 +18°C° 0 mm 2 mps 699 mmHg 51%
    02:00 +18°C° 0 mm 1 mps 698 mmHg 54%
    03:00 +18°C° 0 mm 1 mps 698 mmHg 56%
    04:00 +18°C° 0 mm 1 mps 698 mmHg 57%
    05:00 +16°C° 0 mm 1 mps 698 mmHg 59%
    06:00 +17°C° 0 mm 0 mps 699 mmHg 56%
    07:00 +18°C° 0 mm 0 mps 699 mmHg 52%
    08:00 +19°C° 0 mm 0 mps 700 mmHg 49%
    09:00 +24°C° 0 mm 1 mps 700 mmHg 41%
    10:00 +27°C° 0 mm 1 mps 701 mmHg 33%
    11:00 +30°C° 0 mm 2 mps 701 mmHg 25%
    12:00 +31°C° 0 mm 2 mps 700 mmHg 22%
    13:00 +32°C° 0 mm 2 mps 699 mmHg 19%
    14:00 +34°C° 0 mm 3 mps 698 mmHg 17%
    15:00 +33°C° 0 mm 3 mps 698 mmHg 19%
    16:00 +33°C° 0 mm 3 mps 698 mmHg 21%
    17:00 +31°C° 0 mm 3 mps 698 mmHg 22%
    18:00 +28°C° 0 mm 3 mps 698 mmHg 27%
    19:00 +26°C° 0 mm 3 mps 698 mmHg 31%
    20:00 +24°C° 0 mm 3 mps 699 mmHg 36%
    21:00 +22°C° 0 mm 3 mps 699 mmHg 40%
    22:00 +21°C° 0 mm 3 mps 699 mmHg 44%
    23:00 +21°C° 0 mm 2 mps 699 mmHg 49%

    27 January, Monday

    Time Temperature Precipitation Wind Pressure Humidity
    00:00 +20°C° 0 mm 2 mps 698 mmHg 51%
    01:00 +19°C° 0 mm 2 mps 698 mmHg 53%
    02:00 +20°C° 0 mm 1 mps 698 mmHg 55%
    03:00 +19°C° 0 mm 1 mps 697 mmHg 58%
    04:00 +19°C° 0 mm 1 mps 697 mmHg 61%
    05:00 +16°C° 0 mm 0 mps 697 mmHg 63%
    06:00 +17°C° 0 mm 0 mps 698 mmHg 60%
    07:00 +21°C° 0 mm 1 mps 699 mmHg 57%
    08:00 +22°C° 0 mm 1 mps 699 mmHg 54%
    09:00 +24°C° 0 mm 1 mps 700 mmHg 46%
    10:00 +27°C° 0 mm 2 mps 700 mmHg 39%
    11:00 +29°C° 0 mm 2 mps 700 mmHg 31%
    12:00 +30°C° 0 mm 3 mps 699 mmHg 28%
    13:00 +31°C° 0 mm 3 mps 698 mmHg 25%
    14:00 +33°C° 0 mm 3 mps 698 mmHg 22%
    15:00 +33°C° 0 mm 3 mps 698 mmHg 24%
    16:00 +31°C° 0 mm 3 mps 697 mmHg 27%
    17:00 +30°C° 0 mm 3 mps 697 mmHg 30%
    18:00 +28°C° 0 mm 3 mps 698 mmHg 35%
    19:00 +26°C° 0 mm 3 mps 698 mmHg 40%
    20:00 +24°C° 0 mm 2 mps 698 mmHg 46%
    21:00 +23°C° 0 mm 2 mps 698 mmHg 49%
    22:00 +21°C° 0 mm 2 mps 698 mmHg 53%
    23:00 +21°C° 0 mm 1 mps 698 mmHg 56%

    28 January, Tuesday

    Time Temperature Precipitation Wind Pressure Humidity
    00:00 +21°C° 0 mm 1 mps 698 mmHg 60%
    01:00 +20°C° 0 mm 1 mps 697 mmHg 64%
    02:00 +18°C° 0 mm 0 mps 697 mmHg 67%
    03:00 +17°C° 0 mm 0 mps 697 mmHg 72%
    04:00 +17°C° 0 mm 0 mps 697 mmHg 77%
    05:00 +17°C° 0 mm 0 mps 697 mmHg 81%
    06:00 +18°C° 0 mm 0 mps 698 mmHg 80%
    07:00 +19°C° 0 mm 0 mps 698 mmHg 79%
    08:00 +20°C° 0 mm 0 mps 699 mmHg 78%
    09:00 +24°C° 0 mm 1 mps 699 mmHg 65%
    10:00 +26°C° 0 mm 2 mps 700 mmHg 53%
    11:00 +29°C° 0 mm 2 mps 700 mmHg 40%
    12:00 +30°C° 0 mm 2 mps 699 mmHg 35%
    13:00 +31°C° 0 mm 2 mps 698 mmHg 30%
    14:00 +32°C° 0 mm 2 mps 698 mmHg 26%
    15:00 +31°C° 0 mm 2 mps 698 mmHg 28%
    16:00 +30°C° 0 mm 2 mps 697 mmHg 30%
    17:00 +30°C° 0 mm 3 mps 697 mmHg 33%
    18:00 +28°C° 0 mm 3 mps 698 mmHg 38%
    19:00 +26°C° 0 mm 2 mps 698 mmHg 44%
    20:00 +24°C° 0 mm 2 mps 698 mmHg 49%
    21:00 +23°C° 0 mm 2 mps 699 mmHg 51%
    22:00 +23°C° 0 mm 2 mps 699 mmHg 53%
    23:00 +21°C° 0 mm 2 mps 699 mmHg 55%

    29 January, Wednesday

    Time Temperature Precipitation Wind Pressure Humidity
    00:00 +21°C° 0 mm 1 mps 699 mmHg 60%
    01:00 +21°C° 0 mm 1 mps 698 mmHg 65%
    02:00 +18°C° 0 mm 0 mps 698 mmHg 70%
    03:00 +18°C° 0 mm 0 mps 698 mmHg 75%
    04:00 +17°C° 0 mm 0 mps 698 mmHg 79%
    05:00 +17°C° 0 mm 0 mps 698 mmHg 83%
    06:00 +20°C° 0 mm 1 mps 699 mmHg 79%
    07:00 +21°C° 0 mm 1 mps 699 mmHg 75%
    08:00 +22°C° 0 mm 1 mps 700 mmHg 71%
    09:00 +25°C° 0 mm 1 mps 700 mmHg 62%
    10:00 +27°C° 0 mm 1 mps 701 mmHg 53%
    11:00 +29°C° 0 mm 1 mps 701 mmHg 44%
    12:00 +30°C° 0 mm 1 mps 700 mmHg 39%
    13:00 +31°C° 0 mm 1 mps 699 mmHg 34%
    14:00 +32°C° 0 mm 2 mps 699 mmHg 29%
    15:00 +32°C° 0 mm 2 mps 699 mmHg 30%
    16:00 +32°C° 0 mm 2 mps 699 mmHg 30%
    17:00 +31°C° 0 mm 2 mps 699 mmHg 31%
    18:00 +29°C° 0 mm 2 mps 699 mmHg 35%
    19:00 +27°C° 0 mm 2 mps 699 mmHg 40%
    20:00 +25°C° 0 mm 2 mps 700 mmHg 45%
    21:00 +24°C° 0 mm 2 mps 700 mmHg 49%
    22:00 +24°C° 0 mm 2 mps 700 mmHg 52%
    23:00 +23°C° 0 mm 1 mps 700 mmHg 55%
    Show more